Location: Kimberly
(42.5380°N, 114.3640°W)
Time: 02:36:39
(UTC-06:00)

Envisat - Visible Passes

Search period start: 23 June 2017 00:00
Search period end: 03 July 2017 00:00
Orbit: 764 x 766 km, 98.2° (Epoch: 22 June)

Date Brightness Start Highest point End Pass type
(mag) Time Alt. Az. Time Alt. Az. Time Alt. Az.
23 Jun 5.6 23:05:22 10° WSW 23:07:43 13° W 23:10:04 10° WNW visible
24 Jun 4.8 22:26:17 10° SSW 22:30:39 29° W 22:35:03 10° NW visible
25 Jun 3.5 21:48:45 10° S 21:53:47 64° WSW 21:58:50 10° NNW visible
26 Jun 5.5 22:53:18 10° SW 22:56:30 17° W 22:59:44 10° NW visible
27 Jun 4.4 22:14:51 10° SSW 22:19:30 36° W 22:24:11 10° NNW visible
29 Jun 5.2 22:41:31 10° SW 22:45:18 21° W 22:49:08 10° NW visible
30 Jun 4.0 22:03:30 10° S 22:08:22 46° W 22:13:15 10° NNW visible
01 Jul 5.7 23:09:25 10° WSW 23:11:14 12° W 23:13:03 10° WNW visible
02 Jul 4.9 22:29:54 10° SSW 22:34:08 26° W 22:38:23 10° NW visible
